Weather History for Tyler, TX

Change the Weather History Date:

Saturday, December 31, 2011

  Actual Average Record
Temperature  
Mean Temperature 52 °F 47 °F  
Max Temperature 68 °F 56 °F 81 °F (1951)
Min Temperature 36 °F 37 °F 5 °F (1983)
Degree Days  
Heating Degree Days 13 19  
Month to date heating degree days 512 527  
Since 1 July heating degree days 820 901  
Cooling Degree Days 0 0  
Month to date cooling degree days 1 6  
Year to date cooling degree days 3677 2417  
Growing Degree Days 2 (Base 50)    
Moisture  
Dew Point 47 °F    
Average Humidity 73    
Maximum Humidity 86    
Minimum Humidity 59    
Precipitation  
Precipitation 0.00 in 0.13 in 1.45 in (1978)
Month to date precipitation 5.73 4.24  
Year to date precipitation 24.97 45.79  
Snow  
Snow 0.00 in - - ()
Month to date snowfall 0.0  
Since 1 July snowfall 0.0  
Snow Depth 0.00 in    
Sea Level Pressure  
Sea Level Pressure 30.01 in    
Wind  
Wind Speed 8 mph (South)    
Max Wind Speed 16 mph    
Max Gust Speed 22 mph    
Visibility 10 miles    
Events      
T = Trace of Precipitation, MM = Missing Value Source: NWS Daily Summary

Daily Weather History Graph

Daily Weather History Graph

Search for Another Location

Airport:

Trip Planner

Search our weather history database for the weather conditions in past years. The results will help you decide how hot, cold, wet, or windy it might be!

Date:

Astronomy

Dec. 31, 2011 Rise Set
Actual Time 7:22 AM CST 5:26 PM CST
Civil Twilight 6:55 AM CST 5:53 PM CST
Nautical Twilight 6:25 AM CST 6:24 PM CST
Astronomical Twilight 5:55 AM CST 6:54 PM CST
Moon 11:34 AM CST (12/31) No Moon Set
Length of Visible Light 10h 57m
Length of Day
10h 03m
Waxing Crescent, 45% of the Moon is Illuminated
Dec 31
Waxing Crescent
Jan 1
First Quarter
Jan 9
Full
Jan 16
Last Quarter
Jan 23
New

Hourly Weather History & Observations

Time (CST) Temp. Windchill Dew Point Humidity Pressure Visibility Wind Dir Wind Speed Gust Speed Precip Events Conditions
12:53 AM 41.0 °F - 33.1 °F 73% 30.06 in 10.0 mi Calm Calm - N/A   Clear
1:53 AM 41.0 °F - 34.0 °F 76% 30.05 in 10.0 mi Calm Calm - N/A   Clear
2:53 AM 39.2 °F - 33.8 °F 81% 30.04 in 7.0 mi Calm Calm - N/A   Clear
3:53 AM 39.2 °F - 32.0 °F 75% 30.05 in 9.0 mi Calm Calm - N/A   Clear
4:53 AM 37.0 °F 34.5 °F 32.0 °F 82% 30.04 in 9.0 mi SSE 3.5 mph - N/A   Clear
5:53 AM 37.4 °F - 33.8 °F 87% 30.04 in 9.0 mi Calm Calm - N/A   Clear
6:53 AM 43.0 °F 38.8 °F 34.0 °F 71% 30.04 in 10.0 mi SSE 6.9 mph - N/A   Clear
7:32 AM 44.6 °F 40.2 °F 37.4 °F 76% 30.05 in 10.0 mi SSE 8.1 mph - N/A   Mostly Cloudy
7:53 AM 46.0 °F 44.8 °F 37.0 °F 71% 30.06 in 10.0 mi SSE 3.5 mph - N/A   Mostly Cloudy
8:53 AM 50.0 °F - 41.0 °F 71% 30.07 in 10.0 mi SSE 8.1 mph - N/A   Overcast
9:41 AM 53.6 °F - 44.6 °F 72% 30.07 in 10.0 mi SSE 5.8 mph - N/A   Mostly Cloudy
9:53 AM 55.9 °F - 46.0 °F 69% 30.07 in 10.0 mi South 9.2 mph - N/A   Scattered Clouds
10:18 AM 57.2 °F - 48.2 °F 72% 30.07 in 10.0 mi South 13.8 mph - N/A   Mostly Cloudy
10:40 AM 57.2 °F - 50.0 °F 77% 30.05 in 10.0 mi South 12.7 mph - N/A   Mostly Cloudy
10:53 AM 57.9 °F - 52.0 °F 81% 30.05 in 10.0 mi South 15.0 mph - N/A   Overcast
11:53 AM 57.9 °F - 54.0 °F 87% 30.01 in 8.0 mi SSW 10.4 mph - N/A   Overcast
12:31 PM 60.8 °F - 55.4 °F 82% 29.99 in 10.0 mi SSW 10.4 mph - N/A   Overcast
12:53 PM 61.0 °F - 55.9 °F 83% 29.98 in 10.0 mi South 11.5 mph - N/A   Overcast
1:18 PM 60.8 °F - 55.4 °F 82% 29.97 in 9.0 mi South 11.5 mph - N/A   Overcast
1:33 PM 62.6 °F - 55.4 °F 77% 29.96 in 8.0 mi South 9.2 mph - N/A   Overcast
1:53 PM 62.6 °F - 57.2 °F 82% 29.95 in 9.0 mi South 10.4 mph - N/A   Overcast
2:19 PM 64.4 °F - 57.2 °F 77% 29.94 in 10.0 mi South 11.5 mph 18.4 mph N/A   Scattered Clouds
2:53 PM 66.0 °F - 55.9 °F 70% 29.93 in 10.0 mi South 13.8 mph - N/A   Clear
3:53 PM 68.0 °F - 53.1 °F 59% 29.92 in 10.0 mi SSW 11.5 mph - N/A   Clear
4:53 PM 66.0 °F - 54.0 °F 65% 29.93 in 10.0 mi South 13.8 mph - N/A   Clear
5:53 PM 60.8 °F - 51.8 °F 72% 29.94 in 10.0 mi South 10.4 mph - N/A   Clear
6:53 PM 60.1 °F - 51.1 °F 72% 29.95 in 10.0 mi South 9.2 mph - N/A   Clear
7:53 PM 57.9 °F - 51.1 °F 78% 29.96 in 10.0 mi South 10.4 mph - N/A   Clear
8:53 PM 57.0 °F - 52.0 °F 83% 29.98 in 10.0 mi SSW 6.9 mph - N/A   Clear
10:53 PM 57.2 °F - 51.8 °F 82% 30.03 in 10.0 mi South 10.4 mph - N/A   Clear
11:53 PM 60.1 °F - 52.0 °F 75% 30.09 in 10.0 mi West 6.9 mph - N/A   Clear